Regional Weather Roundup
Issued by NWS

Home | Current Version | Previous Version | Graphics & Text | Print | Product List | Glossary On
Versions: 1 2 3 4 5 6 7 8 9 10 11 12 13 14 15 16 17 18 19 20 21 22 23 24 25 26 27 28 29 30 31 32 33 34 35 36 37 38 39 40 41 42 43 44 45 46 47 48 49 50
527
ASUS44 KLIX 271101
RWRLA
LOUISIANA WEATHER ROUNDUP
NATIONAL WEATHER SERVICE NEW ORLEANS LA
500 AM CST FRI FEB 27 2015

NOTE: "FAIR" INDICATES FEW OR NO CLOUDS BELOW 12,000 FEET WITH NO
      SIGNIFICANT WEATHER AND/OR OBSTRUCTIONS TO VISIBILITY.
      SKY/WX - SKY CONDITION AND SIGNIFICANT WEATHER.
      TMP - AIR TEMPERATURE.    DP   - DEWPOINT TEMPERATURE.
      RH  - RELATIVE HUMIDITY.  PRES - PRESSURE.
      HX  - HEAT INDEX.         WCI  - WIND CHILL INDEX.

*  THESE STATIONS ARE NOT NWS OR FAA STATIONS AND ARE NOT UNDER
   NWS QUALITY CONTROL.

LAZ040-048-061>063-065-066-069-271200-
SOUTHEAST LOUISIANA

CITY           SKY/WX    TMP DP  RH WIND       PRES   REMARKS
N.O. AUDUBON   NOT AVBL
N.O. INTL ARPT CLOUDY    37  30  75 NE18G25   30.33S WCI  27
N.O. LAKEFRONT MOCLDY    39  32  76 NE22      30.34S WCI  29
SLIDELL        CLEAR     32  29  88 NE7       30.34R WCI  26
BATON ROUGE    CLOUDY    36  29  75 N5        30.35R WCI  32
BOOTHVILLE     CLOUDY    42  36  79 N14G23    30.31S
BELLE CHASSE   CLEAR     36  29  75 NE10      30.34R WCI  28
BOGALUSA*        N/A     34  31  88 E3        30.35S
GALLIANO*      CLOUDY    39  33  79 MISG      30.32S
NEW ROADS*     NOT AVBL
GONZALES*      NOT AVBL
HAMMOND*       NOT AVBL
HOUMA*         CLEAR     35  32  89 N10       30.32R WCI  27
PORT FOURCHON* PTSUNNY   41  36  81 NE20G28   30.33S

$$

LAZ041-044-053-054-271200-
SOUTHWEST LOUISIANA

CITY           SKY/WX    TMP DP  RH WIND       PRES   REMARKS
LAKE CHARLES   PTCLDY    37  28  70 NE17      30.34R WCI  27
LAFAYETTE      CLOUDY    36  29  75 N14       30.35R WCI  27
PATTERSON      PTCLDY    36  30  80 NE15      30.32F WCI  26
SALT POINT       N/A     35  31  85 NE6       30.30S WCI  30
NEW IBERIA     CLOUDY    37  30  75 NE16      30.35R WCI  28
CHENAULT AIRPK NOT AVBL

$$

LAZ027-028-271200-
CENTRAL LOUISIANA

CITY           SKY/WX    TMP DP  RH WIND       PRES   REMARKS
FORT POLK      MOCLDY    31  28  86 NE10      30.33F WCI  23
ALEXANDRIA INT PTCLDY    31  26  82 NE8       30.39S WCI  23
ALEXANDRIA     CLOUDY    33  25  72 VRB3      30.41R

$$

LAZ001-002-271200-
NORTHWEST LOUISIANA

CITY           SKY/WX    TMP DP  RH WIND       PRES   REMARKS
SHREVEPORT     MOCLDY    29  21  72 NE9       30.42F WCI  20
BARKSDALE AFB  PTCLDY    28  21  73 VRB7      30.43S WCI  21
DTN SHREVEPORT PTCLDY    28  18  66 NE8G20    30.44R WCI  20

$$

LAZ014-016-271200-
NORTHEAST LOUISIANA

CITY           SKY/WX    TMP DP  RH WIND       PRES   REMARKS
MONROE         CLOUDY    28  23  81 NE12      30.45S WCI  18
TALLULAH       CLOUDY    30  23  75 N14       30.44R WCI  19

$$




USA.gov is the U.S. government's official web portal to all federal, state and local government web resources and services.